Temp
-7 -7 -7 -7 -7 -7 -7 -7 -6 -6 -6 -6 -6 -6 -6 -6 -7 -7 -7 -7 -7 -7 -7 -7 -6 -6 -6 -6 -6 -6 -6 -7 -6 -6 -7 -7 -7 -7 -7 -7 -7 -7 -7
-6 -6 -7 -7 -7 -7 -6 -7 -7 -6 -6 -6 -6 -6 -6 -6 -7 -7 -7 -7 -7 -7 -7 -7 -7 -6 -6 -6 -6 -6 -6 -7 -6 -6 -6 -7 -6 -7 -7 -7 -7 -7 -7
-7 -7 -6 -7 -7 -7 -7 -6 -6 -7 -7 -7 -7 -6 -6 -6 -7 -7 -7 -7 -7 -7 -7 -7 -7 -7 -7 -6 -7 -6 -6 -6 -6 -6 -6 -6 -6 -6 -6 -6 -6 -6 -6
-6 -6 -6 -7 -7 -7 -7 -7 -7 -6 -6 -7 -7 -7 -7 -6 -6 -7 -7 -7 -7 -7 -7 -7 -7 -7 -7 -7 -7 -6 -6 -6 -6 -6 -6 -6 -6 -6 -6 -6 -6 -6 -6
-7 -6 -6 -6 -7 -7 -7 -7 -7 -7 -7 -7 -7 -7 -7 -7 -7 -7 -7 -7 -7 -7 -7 -7 -7 -7 -7 -7 -7 -6 -7 -7 -7 -6 -6 -6 -6 -6 -6 -6 -6 -6 -6
-7 -7 -7 -7 -7 -7 -6 -6 -8 -7 -7 -7 -7 -7 -7 -7 -7 -7 -7 -6 -6 -7 -6 -7 -7 -7 -6 -7 -6 -7 -7 -7 -7 -7 -7 -6 -6 -6 -6 -7 -7 -7 -6
-7 -7 -7 -7 -6 -7 -6 -6 -7 -7 -7 -7 -7 -7 -7 -7 -7 -7 -7 -7 -7 -7 -7 -7 -6 -6 -7 -7 -6 -7 -7 -7 -7 -7 -7 -7 -7 -6 -6 -7 -7 -7 -7
-8 -7 -7 -7 -7 -6 -6 -6 -6 -7 -7 -6 -8 -7 -7 -7 -7 -7 -7 -7 -7 -7 -7 -7 -7 -7 -7 -7 -7 -7 -7 -7 -7 -7 -7 -7 -7 -7 -7 -7 -7 -7 -7
-7 -7 -7 -8 -7 -6 -7 -6 -7 -8 -7 -7 -7 -7 -7 -7 -7 -7 -7 -7 -7 -7 -7 -7 -7 -7 -7 -7 -7 -7 -7 -7 -7 -7 -7 -7 -7 -7 -7 -7 -7 -7 -7
-7 -7 -7 -7 -7 -7 -7 -7 -7 -7 -7 -6 -6 -7 -7 -9 -7 -7 -8 -8 -7 -7 -7 -7 -7 -7 -7 -6 -7 -7 -7 -7 -7 -7 -7 -7 -7 -7 -7 -7 -7 -7 -7
-7 -6 -7 -8 -7 -7 -7 -7 -7 -7 -8 -7 -7 -9 -7 -7 -7 -8 -8 -8 -8 -7 -7 -8 -7 -7 -7 -7 -7 -7 -7 -7 -8 -8 -8 -8 -8 -8 -8 -8 -8 -8 -7
-9 -9 -8 -7 -7 -8 -9 -10 -9 -9 -9 -9 -8 -9 -8 -8 -8 -8 -8 -8 -7 -8 -8 -8 -7 -7 -7 -7 -7 -7 -7 -8 -8 -7 -7 -8 -8 -8 -8 -8 -8 -8 -7
-9 -9 -9 -10 -8 -9 -9 -10 -9 -9 -8 -9 -8 -9 -9 -9 -9 -8 -9 -9 -8 -9 -9 -8 -8 -8 -8 -8 -8 -9 -9 -8 -7 -7 -7 -7 -8 -8 -8 -8 -8 -8 -8
-10 -9 -9 -9 -9 -10 -10 -10 -9 -10 -9 -9 -9 -10 -9 -10 -9 -9 -9 -9 -9 -9 -8 -8 -8 -9 -8 -8 -8 -8 -8 -8 -7 -7 -7 -8 -8 -9 -8 -8 -8 -8 -9
-10 -10 -10 -10 -9 -10 -10 -12 -12 -11 -10 -10 -10 -10 -11 -10 -10 -10 -10 -10 -9 -9 -9 -9 -9 -9 -9 -9 -8 -9 -9 -8 -8 -8 -9 -9 -9 -9 -8 -9 -9 -9 -9
-11 -10 -10 -10 -11 -11 -11 -12 -12 -11 -11 -11 -10 -10 -10 -10 -10 -10 -10 -10 -10 -10 -10 -10 -9 -9 -10 -9 -10 -9 -9 -9 -9 -9 -9 -9 -9 -8 -8 -8 -9 -10 -10
-11 -11 -11 -11 -11 -11 -11 -11 -11 -11 -11 -11 -10 -11 -11 -10 -10 -10 -10 -10 -10 -10 -10 -11 -10 -11 -10 -10 -9 -10 -10 -11 -9 -10 -9 -10 -10 -9 -10 -11 -10 -10 -11
-12 -12 -12 -12 -12 -12 -12 -12 -12 -12 -12 -12 -12 -11 -11 -11 -11 -11 -11 -10 -11 -11 -11 -11 -12 -12 -12 -12 -12 -12 -11 -11 -11 -11 -11 -10 -10 -11 -11 -11 -11 -11 -12
-14 -13 -13 -13 -13 -13 -13 -13 -13 -13 -13 -13 -13 -13 -13 -13 -12 -13 -13 -13 -13 -13 -12 -13 -12 -12 -13 -13 -12 -13 -13 -13 -12 -12 -12 -12 -13 -12 -12 -11 -12 -12 -12
-14 -13 -14 -14 -14 -13 -13 -13 -13 -14 -13 -13 -14 -13 -14 -14 -14 -14 -13 -13 -13 -13 -14 -13 -13 -13 -14 -14 -13 -14 -13 -13 -13 -13 -12 -12 -13 -13 -13 -13 -12 -12 -12
-15 -15 -14 -14 -14 -14 -14 -14 -14 -14 -14 -14 -14 -14 -14 -14 -14 -14 -14 -14 -14 -14 -14 -14 -14 -14 -14 -14 -14 -14 -14 -14 -14 -14 -14 -14 -13 -14 -14 -13 -13 -13 -14
-16 -16 -16 -16 -16 -16 -15 -15 -15 -15 -15 -15 -14 -14 -14 -14 -14 -15 -15 -15 -15 -15 -15 -15 -15 -15 -15 -16 -16 -15 -16 -15 -16 -16 -16 -16 -16 -16 -16 -16 -16 -16 -16
-17 -17 -17 -17 -17 -17 -17 -17 -17 -17 -16 -16 -16 -16 -16 -16 -16 -16 -16 -16 -17 -17 -17 -17 -16 -16 -16 -16 -16 -16 -17 -17 -17 -17 -17 -17 -16 -16 -16 -16 -17 -17 -18
-18 -18 -18 -18 -18 -18 -18 -18 -18 -18 -18 -18 -18 -18 -18 -18 -18 -18 -18 -17 -18 -18 -18 -18 -18 -18 -18 -18 -18 -18 -18 -18 -18 -18 -18 -18 -19 -19 -19 -18 -18 -19 -20
-18 -18 -18 -18 -18 -18 -19 -19 -19 -19 -19 -19 -19 -19 -19 -19 -19 -19 -19 -19 -19 -19 -19 -19 -19 -19 -19 -19 -19 -19 -18 -18 -18 -19 -19 -20 -20 -20 -20 -20 -20 -20 -20
-18 -18 -18 -18 -19 -19 -19 -19 -19 -19 -20 -20 -19 -19 -19 -20 -20 -20 -20 -20 -20 -20 -19 -19 -19 -19 -19 -19 -19 -19 -19 -19 -20 -21 -22 -22 -22 -21 -22 -22 -21 -22 -21
Height
5915 5917 5919 5922 5925 5927 5929 5931 5934 5937 5939 5941 5942 5942 5943 5943 5943 5943 5943 5944 5944 5944 5945 5946 5945 5945 5945 5946 5946 5945 5946 5944 5945 5945 5945 5944 5943 5943 5939 5938 5938 5938 5936
5913 5914 5915 5918 5921 5924 5926 5929 5930 5933 5935 5937 5939 5940 5941 5941 5942 5942 5942 5942 5942 5943 5942 5942 5943 5942 5942 5942 5943 5943 5943 5943 5942 5943 5943 5943 5942 5941 5940 5938 5938 5938 5938
5910 5911 5912 5914 5917 5920 5923 5926 5927 5928 5930 5933 5935 5936 5938 5938 5939 5940 5940 5940 5940 5939 5940 5940 5939 5940 5940 5940 5941 5941 5941 5941 5941 5941 5941 5940 5939 5939 5939 5938 5937 5937 5937
5904 5906 5909 5911 5914 5915 5918 5921 5924 5926 5927 5928 5930 5932 5933 5934 5935 5935 5935 5936 5936 5935 5935 5936 5937 5937 5937 5937 5937 5939 5939 5939 5939 5938 5937 5936 5936 5936 5936 5936 5935 5935 5934
5899 5901 5904 5908 5909 5910 5911 5914 5917 5918 5921 5923 5925 5926 5927 5928 5929 5931 5931 5931 5931 5930 5930 5931 5933 5933 5933 5933 5934 5934 5934 5935 5934 5934 5934 5933 5933 5933 5934 5934 5932 5931 5931
5894 5896 5898 5900 5902 5904 5906 5908 5909 5912 5914 5917 5917 5919 5920 5921 5922 5923 5924 5925 5924 5925 5925 5926 5928 5928 5929 5929 5929 5930 5930 5930 5930 5929 5929 5929 5930 5930 5930 5930 5929 5929 5928
5887 5890 5892 5894 5895 5897 5899 5900 5902 5904 5906 5908 5909 5910 5913 5915 5916 5916 5917 5917 5917 5919 5920 5921 5922 5922 5924 5924 5924 5924 5925 5925 5925 5925 5925 5925 5925 5925 5925 5924 5923 5924 5923
5881 5884 5886 5887 5888 5889 5892 5893 5895 5897 5898 5897 5900 5902 5904 5906 5908 5907 5909 5911 5911 5913 5914 5915 5916 5916 5917 5918 5919 5919 5919 5919 5920 5919 5919 5919 5919 5919 5919 5918 5917 5916 5915
5875 5877 5877 5879 5881 5875 5882 5884 5887 5888 5890 5889 5891 5893 5895 5897 5899 5900 5901 5903 5904 5905 5907 5907 5908 5908 5909 5910 5910 5910 5911 5912 5912 5912 5912 5912 5911 5911 5911 5911 5911 5909 5907
5867 5866 5866 5868 5864 5871 5873 5874 5875 5879 5879 5881 5882 5884 5884 5885 5889 5891 5891 5894 5896 5897 5898 5899 5900 5899 5900 5901 5902 5903 5903 5903 5904 5904 5904 5904 5903 5903 5903 5903 5902 5901 5899
5857 5857 5857 5858 5859 5860 5861 5864 5865 5867 5870 5871 5873 5874 5872 5876 5881 5882 5883 5883 5885 5886 5888 5888 5890 5891 5890 5891 5892 5893 5894 5894 5895 5895 5895 5895 5895 5894 5893 5891 5890 5890 5890
5849 5849 5849 5848 5850 5853 5855 5856 5859 5861 5864 5865 5865 5866 5867 5869 5872 5873 5873 5875 5876 5877 5879 5880 5880 5879 5880 5881 5882 5883 5884 5884 5884 5884 5884 5884 5883 5883 5882 5881 5879 5878 5876
5843 5843 5843 5842 5841 5845 5849 5851 5855 5856 5857 5857 5858 5858 5861 5860 5862 5865 5867 5869 5868 5869 5871 5872 5872 5871 5870 5869 5870 5873 5873 5874 5874 5873 5873 5874 5873 5873 5872 5870 5868 5867 5865
5836 5836 5836 5836 5837 5838 5840 5840 5844 5847 5848 5848 5851 5853 5854 5855 5856 5856 5858 5860 5860 5860 5861 5862 5862 5862 5862 5862 5862 5861 5861 5862 5862 5861 5860 5860 5860 5859 5858 5857 5856 5854 5852
5828 5828 5829 5829 5830 5830 5831 5831 5831 5833 5837 5839 5840 5842 5843 5844 5846 5847 5848 5849 5849 5850 5850 5850 5850 5851 5851 5850 5849 5849 5849 5848 5849 5849 5846 5846 5845 5845 5845 5843 5842 5841 5839
5819 5820 5820 5820 5819 5821 5821 5823 5823 5825 5826 5828 5829 5830 5831 5832 5832 5834 5833 5835 5836 5836 5837 5837 5837 5837 5837 5836 5836 5836 5835 5834 5834 5833 5832 5832 5830 5828 5827 5827 5826 5825 5824
5811 5811 5811 5812 5811 5811 5812 5812 5812 5812 5813 5816 5817 5816 5817 5818 5818 5820 5819 5820 5821 5821 5821 5821 5822 5822 5821 5821 5821 5820 5820 5821 5821 5819 5817 5815 5814 5813 5812 5811 5809 5807 5805
5801 5801 5801 5801 5801 5801 5801 5801 5801 5801 5801 5801 5802 5802 5802 5803 5804 5804 5804 5804 5805 5805 5805 5806 5806 5806 5805 5805 5805 5806 5806 5806 5805 5803 5801 5798 5796 5795 5794 5792 5790 5788 5786
5791 5791 5791 5790 5789 5789 5789 5789 5789 5790 5789 5790 5790 5790 5790 5791 5792 5791 5791 5790 5791 5790 5791 5791 5790 5790 5790 5789 5789 5789 5789 5788 5788 5786 5782 5783 5781 5779 5776 5774 5773 5771 5770
5783 5782 5781 5780 5779 5779 5778 5777 5776 5776 5776 5777 5777 5777 5778 5779 5778 5777 5777 5777 5777 5777 5777 5776 5776 5777 5775 5773 5772 5773 5772 5770 5768 5766 5765 5763 5762 5762 5760 5758 5755 5753 5751
5771 5771 5772 5771 5771 5770 5769 5768 5768 5767 5766 5765 5764 5763 5762 5761 5762 5762 5762 5762 5762 5760 5761 5760 5759 5759 5759 5758 5757 5757 5755 5752 5750 5748 5745 5744 5741 5739 5739 5735 5733 5731 5729
5758 5758 5758 5758 5758 5757 5756 5755 5755 5755 5755 5754 5752 5751 5750 5749 5747 5746 5746 5746 5747 5747 5748 5747 5746 5745 5745 5744 5742 5742 5740 5737 5735 5733 5731 5730 5726 5722 5721 5718 5716 5714 5712
5748 5747 5746 5745 5744 5743 5742 5741 5741 5741 5740 5740 5739 5738 5737 5737 5736 5735 5734 5733 5733 5731 5731 5731 5730 5729 5729 5728 5726 5725 5723 5721 5721 5719 5716 5713 5711 5710 5707 5704 5702 5700 5699
5736 5735 5734 5733 5733 5732 5731 5731 5731 5730 5730 5729 5728 5728 5727 5726 5724 5724 5724 5722 5721 5720 5718 5717 5715 5715 5714 5712 5711 5710 5709 5708 5705 5703 5700 5698 5696 5693 5691 5689 5687 5685 5683
5725 5723 5722 5721 5720 5719 5718 5718 5717 5717 5716 5716 5715 5714 5713 5712 5711 5711 5710 5709 5708 5706 5706 5705 5703 5702 5700 5699 5697 5696 5694 5693 5691 5688 5685 5682 5680 5677 5675 5674 5672 5671 5669
5713 5711 5710 5709 5708 5707 5707 5706 5705 5705 5705 5705 5703 5701 5701 5700 5700 5699 5698 5697 5695 5694 5693 5692 5690 5688 5686 5684 5682 5680 5677 5675 5672 5670 5668 5667 5665 5662 5660 5659 5657 5655 5653
Wind_Speed
20 19 18 17 16 16 16 16 16 15 14 15 15 15 15 15 14 13 12 11 10 9 8 8 8 7 7 4 4 3 3 5 6 6 5 4 3 3 3 4 6 6 4
23 22 21 21 20 21 20 18 17 17 17 17 16 17 16 15 14 13 12 13 12 12 12 12 11 10 9 8 9 8 7 6 5 3 3 4 5 5 5 3 5 3 5
25 25 25 25 23 23 23 22 21 21 20 20 21 19 18 17 17 17 17 15 15 14 15 15 14 13 13 12 13 13 12 9 8 6 5 6 6 5 5 5 4 4 4
29 29 28 26 26 26 26 26 26 25 26 24 24 22 22 21 22 22 20 19 18 18 17 17 16 15 17 17 16 16 14 12 12 11 9 9 9 8 7 6 6 6 5
27 30 30 26 27 29 28 29 28 30 28 26 27 26 26 25 24 24 23 21 20 20 19 19 19 18 18 18 18 17 16 15 15 13 12 12 12 11 9 9 8 8 8
27 28 29 27 31 33 32 33 33 32 31 30 28 29 29 28 25 24 26 25 22 22 22 20 19 19 20 20 19 17 18 17 16 16 14 15 15 14 12 11 11 12 12
24 26 28 31 27 28 32 29 26 35 36 34 32 33 33 33 31 28 27 28 25 23 23 21 23 23 25 22 20 19 19 19 18 16 17 17 18 18 18 17 16 16 17
29 28 30 31 34 34 33 32 34 33 37 34 39 40 36 35 35 35 32 29 29 27 26 26 27 29 24 24 23 23 22 22 25 23 21 20 20 21 21 21 22 22 24
25 32 39 40 35 34 36 33 34 33 31 30 39 43 42 42 39 38 37 35 35 32 34 31 30 25 22 25 24 26 27 27 26 26 26 25 25 25 26 26 27 29 29
19 26 35 42 30 41 49 41 35 37 37 33 31 40 42 47 45 42 42 42 43 38 43 37 34 32 30 30 28 28 28 27 29 29 30 31 31 32 32 33 34 33 33
23 25 23 36 42 34 33 39 32 25 34 39 32 16 34 35 41 43 38 43 42 44 43 40 33 36 40 37 34 33 35 33 32 35 35 37 38 37 38 39 39 38 38
14 15 17 29 38 26 11 14 15 12 13 14 11 12 9 12 16 12 13 15 30 19 23 22 33 35 46 38 39 38 39 38 37 38 36 34 36 35 34 34 37 41 42
15 17 17 17 21 32 27 19 20 17 18 15 14 15 17 15 18 19 19 24 23 23 22 23 23 22 30 29 30 30 28 29 33 35 37 39 38 40 39 40 44 44 45
20 21 21 23 25 26 27 25 28 28 25 23 24 24 24 26 27 28 29 29 31 30 30 33 31 32 29 30 33 35 35 36 38 41 42 43 45 46 46 43 45 47 48
22 24 26 28 30 32 35 30 28 30 32 31 32 34 34 34 34 35 36 37 37 38 37 38 40 40 40 40 44 40 43 41 43 46 41 50 46 43 46 48 49 48 48
25 26 27 30 33 35 35 34 36 37 37 37 38 40 40 40 39 42 41 42 42 43 44 44 46 47 46 48 48 49 49 46 53 47 51 47 49 52 50 50 48 49 52
29 29 30 30 30 30 31 35 39 41 42 45 44 42 44 45 44 45 45 47 46 45 46 45 45 46 47 51 51 50 44 43 52 59 56 52 51 59 61 59 58 60 55
31 33 34 35 36 36 36 36 37 37 37 39 40 40 41 40 43 44 46 49 47 48 49 46 45 48 48 50 51 51 53 53 60 60 59 64 67 62 64 64 68 66 61
33 34 37 40 41 40 37 36 36 37 39 38 39 38 39 39 38 45 42 42 44 45 44 39 44 46 48 46 47 47 50 50 54 61 56 61 62 64 70 69 69 68 66
26 27 27 30 32 36 38 40 41 41 41 41 41 41 41 41 41 42 43 43 44 45 44 47 46 49 54 51 51 53 57 55 56 59 63 64 63 61 65 68 69 68 65
28 30 31 32 33 33 34 35 36 38 39 40 41 41 41 42 44 46 47 46 44 44 46 48 50 51 53 53 51 54 59 51 51 55 54 60 65 63 74 72 68 66 65
33 34 34 34 35 36 37 38 39 39 40 41 41 42 43 45 46 46 46 46 47 48 48 48 48 49 49 49 49 50 52 52 53 55 53 49 46 44 44 44 44 45 47
34 37 38 39 39 40 41 41 42 42 43 43 44 45 46 47 48 49 48 46 44 44 46 47 48 49 50 51 50 50 51 52 53 54 53 53 54 56 57 57 56 56 55
32 33 35 37 39 39 39 40 40 40 40 41 41 42 44 45 46 46 47 46 45 44 43 43 44 45 46 48 49 51 52 53 53 52 52 51 50 50 50 51 51 50 50
31 33 35 36 37 38 39 39 38 36 35 35 38 40 40 40 40 41 42 43 42 41 41 42 42 43 45 47 48 49 50 51 53 54 51 50 50 48 47 48 47 49 51
36 36 37 37 37 36 36 36 37 38 39 39 31 38 42 42 43 43 41 40 40 43 43 44 46 47 49 50 53 55 55 55 53 49 50 52 49 46 47 49 49 49 50
Wind_Direction
213 211 209 213 218 221 222 219 221 224 222 214 213 214 214 211 212 214 216 218 217 229 242 241 244 249 256 270 279 288 319 339 13 29 25 0 1 13 22 38 48 35 6
225 223 221 217 222 225 228 228 227 225 228 228 227 227 229 232 229 229 231 234 236 235 242 248 250 255 268 280 287 292 297 293 326 357 349 323 326 347 0 333 14 11 0
227 228 225 225 225 231 238 237 235 237 237 241 241 237 234 237 234 237 242 243 248 250 251 253 255 255 261 268 276 279 278 285 293 290 289 276 291 311 319 317 325 329 334
227 231 233 228 229 232 234 239 243 243 243 242 246 246 247 245 244 242 241 245 244 244 245 248 253 253 252 253 257 261 267 267 272 273 273 275 279 280 281 293 295 295 295
240 237 235 238 242 240 240 241 244 247 248 248 250 251 249 249 252 253 250 245 245 247 248 247 245 245 247 251 253 257 262 259 262 264 270 274 275 276 274 266 274 283 287
236 237 229 237 248 243 240 246 246 250 252 254 251 253 255 254 250 253 250 248 244 246 248 250 252 249 245 246 249 253 259 262 267 266 262 269 271 269 266 260 261 264 268
238 243 242 237 247 260 255 249 259 247 247 248 250 254 255 258 258 255 259 254 246 249 252 255 256 256 252 252 252 258 261 268 267 265 269 273 272 275 278 278 277 276 275
243 245 249 247 241 252 256 256 251 252 258 282 241 242 254 252 255 259 259 261 264 259 258 257 258 258 255 250 249 254 252 255 260 261 266 269 269 274 278 282 284 282 280
261 253 254 246 246 255 255 248 250 251 259 253 258 250 244 254 254 258 261 261 260 260 261 257 260 254 250 252 251 250 248 255 256 260 266 266 268 271 271 271 275 279 280
274 265 261 242 242 250 246 247 249 254 258 260 263 262 256 240 247 255 258 259 257 256 260 258 257 264 251 245 253 252 256 254 259 263 265 270 273 274 272 272 275 272 273
267 270 269 274 258 254 254 237 246 236 249 253 251 271 260 258 260 271 269 264 260 257 257 257 257 254 256 252 254 249 255 253 256 270 279 270 272 273 278 276 276 272 273
276 279 278 282 242 271 271 327 316 273 287 286 299 305 308 274 267 279 293 297 240 243 247 267 264 260 249 254 253 255 256 264 270 271 268 272 271 268 271 276 277 276 275
261 265 270 276 280 286 281 279 264 258 260 255 257 249 245 251 267 273 264 268 281 287 276 271 271 274 265 280 283 281 282 278 278 275 271 272 276 271 272 278 278 278 276
260 259 258 256 249 242 241 245 253 257 256 255 256 254 253 254 247 246 249 250 256 257 259 265 270 269 264 266 266 269 267 265 267 271 272 271 270 271 274 279 279 276 274
263 261 255 251 251 251 247 246 250 248 252 254 257 261 260 257 256 255 255 257 256 262 264 264 270 267 268 269 269 271 270 267 265 277 277 270 267 271 276 275 279 276 275
248 251 253 256 256 257 259 259 256 254 257 258 258 258 260 263 262 262 262 263 263 264 266 266 267 268 271 272 272 274 274 271 266 263 272 266 267 279 275 277 275 274 278
250 250 253 256 258 257 255 256 258 261 262 260 264 261 264 267 267 268 267 268 271 271 272 271 272 272 272 273 272 273 267 257 253 262 268 262 265 274 272 275 273 275 275
254 258 259 261 262 263 263 264 266 266 266 269 269 271 272 270 268 267 268 269 269 269 270 269 271 271 272 271 273 273 271 261 260 266 266 267 272 273 273 273 275 279 279
260 261 261 262 264 267 270 271 271 272 273 272 272 273 274 274 259 269 271 269 271 271 268 270 271 272 269 266 268 268 270 265 262 265 265 267 270 271 270 270 271 271 271
262 266 269 267 267 267 269 272 273 273 273 274 275 274 272 271 271 274 275 274 272 268 267 265 269 263 273 274 271 268 272 270 271 271 272 273 270 273 273 275 274 271 270
271 271 270 270 269 270 269 269 269 272 273 275 279 280 281 280 280 276 275 274 273 272 271 271 270 270 271 273 273 269 273 278 279 274 275 274 271 272 270 267 265 266 267
273 271 268 265 263 261 261 262 263 264 266 269 271 273 275 278 279 280 279 278 276 275 275 274 274 272 273 273 270 270 272 277 279 281 282 281 279 277 277 279 278 280 281
276 273 271 267 266 264 262 261 261 262 263 264 265 266 267 267 268 270 273 275 275 276 275 275 275 274 275 276 277 277 277 277 278 279 278 278 277 277 280 280 281 285 287
280 277 276 275 275 273 271 271 270 271 272 270 269 270 271 271 274 276 276 276 278 279 280 281 282 282 281 279 279 280 280 281 283 284 285 284 284 284 284 284 286 289 290
284 279 275 276 276 273 272 271 270 270 270 270 272 273 273 274 274 274 277 281 282 283 283 284 284 285 284 283 282 283 286 285 285 286 287 287 286 284 285 285 284 285 285
287 283 279 277 276 272 272 271 270 269 269 270 259 264 274 281 277 282 281 281 282 284 284 283 284 285 286 285 285 286 286 287 287 286 285 286 288 288 288 286 284 286 286